Tracking 23448 objects as of 23-Jun-2021
HD Live streaming from Space Station
objects crossing your sky now

COSMOS 1285 DEB

Track COSMOS 1285 DEB now!


NORAD ID: 25840
Int'l Code: 1981-071J
Perigee: 5,846.1 km
Apogee: 34,983.3 km
Inclination: 69.0 °
Period: 727.1 minutes
Semi major axis: 26785 km
RCS: 0.2681 m2 (medium)
Launch date: August 4, 1981
Source: Commonwealth of Independent States (former USSR) (CIS)
Launch site: PLESETSK MISSILE AND SPACE COMPLEX (PKMTR)

Note: This is SATELLITE DEBRIS
aabbcc
Your satellite tracking list
Your tracking list is empty




NASA's NSSDC Master Catalog

Two Line Element Set (TLE):
1 25840U 81071J   18054.08498625 -.00000095 +00000-0 +00000-0 0  9991
2 25840 069.0232 260.5746 5438958 066.2245 058.1880 01.98038274148959
Source of the keplerian elements: AFSPC